Wind_Speed
40 39 39 40 40 39 39 37 36 36 35 34 31 29 28 28 28 27 26 24 23 23 23 22 22 22 22 22 22 22 23 23 22 21 20 19 18 18 17 16 16 16 15 15
39 41 41 40 39 40 40 39 38 37 36 35 32 29 28 28 27 27 26 25 24 23 23 23 23 22 22 22 23 23 24 24 24 23 22 21 20 20 20 19 18 18 16 16
35 38 39 39 39 39 39 39 38 37 35 34 32 29 27 27 26 25 25 25 24 23 23 24 24 23 23 23 24 24 24 25 25 25 23 23 22 23 22 22 21 21 20 19
27 30 33 35 36 37 37 37 36 35 33 32 31 30 26 25 25 25 25 24 24 23 23 24 25 24 24 24 25 25 25 26 26 26 25 24 24 25 25 25 25 24 23 23
27 28 28 30 32 34 34 34 34 34 33 32 31 31 27 25 24 25 25 24 23 23 24 25 25 25 25 26 26 26 26 26 26 26 26 26 26 27 27 27 27 27 27 26
26 28 28 28 29 29 29 29 29 30 30 30 29 28 26 25 25 25 24 24 24 23 23 24 25 26 26 27 26 26 26 26 26 26 26 27 28 28 28 29 28 28 29 28
24 26 28 28 28 28 27 27 27 27 27 27 25 24 23 23 22 22 22 23 23 23 23 24 25 26 27 27 26 25 25 25 25 26 26 27 27 28 28 29 29 29 29 29
23 24 26 27 27 27 27 26 27 25 24 24 23 21 20 20 19 19 18 19 20 21 23 23 24 26 26 26 26 25 24 24 24 24 25 24 25 25 25 25 26 27 27 27
25 25 25 26 26 26 26 26 26 26 24 23 22 21 19 16 16 16 16 17 19 21 22 23 24 25 26 26 26 24 24 24 23 24 23 23 22 22 22 22 22 23 24 25
27 26 24 24 25 26 26 26 25 25 24 24 24 23 21 18 17 16 16 17 19 21 22 23 23 24 25 24 24 23 23 23 23 23 23 23 22 21 20 20 20 20 21 22
27 28 26 25 25 26 26 26 26 27 27 25 25 24 22 20 17 16 16 17 19 20 21 21 21 22 22 22 23 23 23 23 23 24 24 23 22 21 20 19 18 18 18 19
26 27 27 26 27 27 28 27 27 27 26 25 25 24 23 21 19 19 20 20 20 21 21 21 21 21 22 22 23 23 23 24 24 24 24 23 22 22 20 19 19 18 18 19
25 25 25 25 25 26 28 28 27 27 27 26 25 23 21 20 19 20 21 21 22 22 22 22 21 21 22 23 23 24 24 25 24 24 23 22 22 22 22 21 21 20 20 20
26 25 25 24 24 25 25 26 26 24 23 23 21 21 20 20 20 21 21 22 23 23 23 23 23 22 23 23 24 25 25 25 24 22 21 20 20 21 22 23 23 23 23 23
26 25 25 25 25 24 21 21 20 20 21 21 20 20 21 21 22 22 23 24 24 24 23 23 23 23 23 24 25 26 25 24 23 21 21 20 20 21 22 23 23 24 24 24
25 23 23 23 22 22 19 18 19 19 19 20 20 20 21 21 22 22 23 24 24 24 24 24 24 23 24 25 25 25 23 22 21 21 21 22 22 23 23 23 23 24 24 24
21 19 19 19 18 17 17 16 16 17 17 18 17 17 18 19 20 21 21 22 23 23 24 23 23 23 23 22 21 20 20 20 21 22 23 24 24 24 24 24 24 24 24 24
15 12 13 14 13 11 12 13 13 14 14 13 13 14 15 15 16 17 17 18 19 19 20 19 18 18 17 17 18 19 20 21 22 23 24 25 25 24 24 24 24 23 23 24
12 7 9 11 12 12 12 12 12 11 12 12 12 13 13 13 13 13 13 13 13 14 14 13 13 14 16 17 19 20 21 22 23 23 24 24 24 23 23 23 24 24 24 24
9 4 7 9 11 12 13 13 13 11 12 12 12 11 11 10 8 8 8 8 8 9 9 10 12 14 16 18 19 20 20 21 21 22 22 22 23 23 23 23 24 24 25 25
7 4 8 11 12 12 13 14 14 14 14 12 12 11 9 7 6 5 5 5 5 6 7 9 11 14 15 16 17 18 18 19 19 20 20 21 21 22 22 22 23 24 25 26
7 7 9 11 13 14 15 15 16 16 16 14 13 11 8 6 5 4 4 4 5 6 8 9 11 12 13 14 15 15 16 17 18 18 18 19 19 20 21 21 22 23 24 25
8 8 12 14 14 14 15 16 16 16 18 16 14 10 7 5 4 4 4 4 6 7 9 10 11 11 12 13 14 15 16 16 16 16 16 17 18 18 19 20 21 21 22 24
9 7 13 16 18 16 15 17 17 18 20 17 13 9 7 6 5 4 3 5 7 9 10 10 11 11 11 13 14 15 15 15 15 15 15 15 16 16 17 17 18 19 20 21
11 7 12 16 19 19 16 16 17 19 20 17 13 10 8 6 5 3 3 5 8 10 10 11 11 10 11 13 13 13 13 13 13 13 13 13 13 14 15 15 15 16 16 16
13 7 11 15 18 20 18 15 18 20 19 16 12 10 9 7 4 3 4 6 9 10 11 11 11 11 12 12 12 12 12 12 11 11 11 12 12 13 13 14 13 12 10 9
Wind_Direction
239 242 245 247 250 253 256 258 261 263 266 270 273 272 268 268 266 264 263 263 266 269 274 277 281 284 286 286 286 286 287 288 288 288 289 287 284 281 276 273 272 266 263 265
242 244 247 250 252 254 257 260 261 263 265 269 271 273 270 266 264 260 259 259 261 265 270 275 279 282 283 284 284 286 286 287 287 286 286 285 281 275 272 270 269 265 261 261
251 251 251 253 254 255 257 260 261 264 266 269 270 268 266 264 261 257 256 256 257 263 268 274 277 280 282 283 284 287 287 287 287 286 285 284 280 277 272 267 266 263 260 259
264 261 259 257 258 258 258 258 260 263 265 267 267 265 263 260 259 257 256 255 256 261 267 272 276 279 280 283 285 287 288 288 288 287 285 283 279 275 271 264 263 262 260 257
265 265 265 263 260 259 260 260 261 262 262 264 265 264 259 256 256 256 254 254 256 260 266 271 275 278 280 283 287 289 289 290 290 289 286 283 279 275 271 265 262 261 260 258
263 262 261 260 259 259 259 259 260 260 262 262 260 261 259 256 255 254 254 255 257 260 264 270 274 277 280 285 288 290 291 291 290 289 286 283 279 276 272 267 263 259 260 258
271 267 263 261 260 258 258 256 258 261 259 259 257 256 258 258 257 256 255 256 257 260 264 268 273 276 280 285 289 291 291 291 290 289 287 285 281 278 274 269 264 260 258 258
275 272 269 265 261 257 253 254 257 261 263 262 259 257 259 262 262 260 258 258 259 262 265 269 273 276 280 285 289 291 290 291 291 291 290 288 284 280 275 269 264 259 257 256
278 272 268 266 265 260 257 255 257 259 260 262 264 264 264 267 268 267 263 261 261 264 268 273 276 279 282 286 288 288 290 292 293 292 292 290 286 281 276 269 264 259 256 254
277 272 266 264 263 260 255 255 256 257 260 262 262 263 268 269 269 268 267 263 262 265 270 274 277 280 283 284 284 285 288 292 293 293 292 290 285 281 275 269 264 259 255 254
277 273 268 261 257 258 256 253 252 254 257 260 264 268 270 272 269 265 261 259 261 265 269 272 276 279 280 281 283 286 289 292 294 293 291 287 283 279 274 270 266 262 258 255
280 273 267 260 257 254 255 252 248 249 252 255 259 264 268 268 265 261 260 259 260 265 270 273 275 275 277 279 282 287 290 293 295 293 288 283 280 276 273 270 268 265 262 259
281 270 267 261 256 253 252 250 247 248 251 255 260 266 267 266 267 261 257 259 263 266 271 273 274 273 276 279 282 287 291 293 294 292 286 281 277 274 271 270 269 267 265 263
282 266 262 258 254 256 254 250 248 247 251 255 260 266 272 273 270 267 264 263 263 266 270 272 272 273 276 279 282 286 289 291 291 287 283 280 277 274 272 270 270 268 267 265
284 265 256 255 254 253 250 248 249 248 254 260 266 271 272 273 272 269 265 264 266 268 269 271 273 273 275 279 282 284 286 286 285 281 279 279 278 277 275 273 271 269 267 264
289 269 255 253 254 254 248 248 251 254 257 263 270 274 275 271 269 267 265 264 265 266 267 267 270 273 276 279 281 281 281 281 279 277 279 281 283 282 280 277 273 270 266 263
294 274 253 246 245 250 244 247 253 255 260 267 271 273 272 271 272 273 270 266 263 261 262 265 269 273 276 278 278 278 279 279 277 278 281 283 285 284 282 279 276 271 266 262
305 274 250 238 234 241 237 241 248 253 260 265 270 274 276 277 277 276 271 265 259 257 260 264 268 271 274 275 279 280 280 280 281 282 283 284 284 283 281 279 276 272 267 263
324 270 238 226 224 230 230 227 234 245 256 262 269 274 276 280 282 275 267 260 255 254 258 263 267 270 275 279 282 283 284 284 285 285 285 285 284 283 281 278 275 273 269 264
329 270 227 216 209 214 220 218 224 234 246 254 255 256 258 261 256 257 251 247 247 251 256 262 269 275 279 282 284 285 287 287 288 288 288 287 286 285 282 279 276 273 270 265
314 257 218 206 204 214 213 212 214 219 226 229 235 239 235 232 236 241 245 248 252 259 266 273 278 282 285 286 287 289 291 292 292 292 293 292 291 289 286 282 278 274 270 266
307 251 221 208 211 218 212 209 215 219 218 218 224 224 223 219 223 230 239 254 268 278 284 287 290 291 292 293 295 297 298 299 299 298 298 297 296 294 292 288 283 278 273 268
320 249 227 220 218 215 210 211 217 219 217 219 219 222 222 218 226 237 255 275 289 296 299 301 301 300 301 302 304 306 307 307 306 305 304 303 302 301 298 294 290 284 277 271
327 260 234 230 229 224 219 215 216 213 212 215 217 219 218 220 227 242 273 295 304 308 309 310 311 311 312 314 314 315 315 315 314 312 310 309 310 309 306 303 298 291 284 276
336 275 241 235 234 234 230 222 216 210 212 214 213 214 217 222 223 242 285 305 312 314 315 316 317 320 322 323 322 322 321 321 320 319 319 321 324 326 324 319 314 306 297 284
344 296 249 239 235 236 238 230 219 210 208 208 209 212 215 217 221 252 292 311 319 321 322 323 324 326 329 329 329 330 329 328 328 329 331 334 337 340 341 340 337 332 322 304
Height
5849 5852 5852 5853 5854 5855 5857 5858 5859 5859 5859 5860 5860 5861 5862 5861 5861 5861 5861 5861 5861 5861 5860 5860 5859 5859 5858 5858 5856 5856 5855 5854 5853 5852 5850 5849 5848 5847 5845 5844 5843 5842 5841 5840
5844 5845 5845 5846 5847 5848 5849 5850 5851 5851 5851 5852 5853 5853 5854 5854 5854 5854 5855 5855 5856 5856 5855 5855 5855 5854 5854 5853 5852 5851 5850 5849 5848 5847 5846 5844 5844 5842 5841 5840 5839 5838 5837 5837
5836 5838 5838 5839 5840 5841 5841 5842 5842 5843 5843 5844 5845 5846 5847 5846 5846 5847 5848 5849 5849 5850 5850 5850 5849 5849 5849 5848 5847 5846 5844 5843 5842 5841 5840 5839 5838 5838 5837 5836 5835 5834 5833 5833
5830 5830 5831 5832 5832 5832 5833 5833 5833 5834 5835 5836 5838 5838 5840 5839 5840 5841 5842 5843 5843 5844 5844 5844 5844 5844 5843 5842 5841 5840 5839 5838 5837 5835 5835 5834 5833 5832 5831 5830 5829 5829 5828 5828
5823 5823 5823 5824 5824 5824 5825 5825 5826 5826 5827 5828 5829 5830 5833 5832 5833 5834 5835 5836 5837 5838 5838 5838 5838 5838 5837 5837 5835 5834 5833 5832 5831 5829 5828 5827 5826 5825 5824 5824 5823 5822 5822 5822
5817 5816 5816 5816 5816 5817 5817 5818 5818 5819 5819 5821 5821 5822 5825 5825 5826 5827 5828 5829 5830 5831 5832 5832 5832 5832 5831 5831 5830 5828 5827 5826 5824 5823 5821 5820 5819 5818 5817 5817 5816 5816 5816 5815
5811 5810 5809 5809 5809 5810 5811 5812 5813 5813 5813 5814 5814 5815 5818 5817 5819 5820 5821 5823 5824 5825 5825 5826 5826 5826 5825 5825 5824 5823 5821 5820 5818 5817 5815 5813 5812 5811 5810 5809 5809 5809 5809 5809
5805 5805 5802 5802 5803 5803 5804 5806 5808 5809 5809 5808 5808 5810 5812 5812 5812 5814 5815 5817 5818 5819 5819 5819 5819 5819 5819 5818 5818 5817 5816 5814 5812 5811 5808 5807 5805 5804 5803 5802 5801 5802 5802 5803
5798 5798 5796 5795 5795 5797 5798 5799 5800 5802 5802 5803 5804 5805 5807 5807 5807 5809 5810 5811 5812 5813 5813 5813 5813 5813 5813 5812 5812 5811 5810 5808 5806 5804 5802 5801 5799 5798 5797 5796 5795 5795 5796 5797
5790 5790 5790 5789 5789 5789 5792 5793 5794 5795 5797 5798 5800 5800 5802 5802 5803 5804 5805 5806 5806 5807 5807 5807 5807 5807 5807 5806 5806 5805 5804 5802 5800 5798 5797 5795 5794 5793 5792 5791 5790 5790 5791 5791
5783 5782 5783 5782 5782 5783 5785 5786 5787 5789 5791 5793 5795 5797 5795 5797 5798 5799 5799 5800 5800 5801 5801 5801 5801 5801 5801 5800 5800 5799 5798 5796 5795 5793 5791 5790 5788 5788 5787 5786 5786 5786 5786 5786
5775 5774 5774 5774 5775 5776 5777 5779 5781 5783 5784 5785 5787 5792 5789 5790 5791 5792 5793 5794 5794 5795 5795 5795 5795 5795 5795 5794 5794 5793 5791 5790 5788 5787 5785 5784 5783 5782 5782 5782 5781 5781 5781 5781
5767 5767 5766 5767 5769 5769 5769 5771 5773 5775 5777 5779 5781 5785 5782 5784 5784 5786 5787 5787 5788 5788 5789 5789 5789 5789 5789 5788 5787 5787 5785 5784 5782 5781 5779 5778 5777 5777 5776 5776 5776 5776 5776 5776
5758 5758 5759 5759 5759 5760 5761 5764 5766 5769 5770 5772 5774 5776 5777 5777 5778 5779 5780 5781 5781 5782 5782 5783 5783 5783 5782 5782 5781 5781 5779 5778 5776 5775 5773 5772 5772 5771 5771 5770 5770 5770 5770 5770
5749 5749 5749 5750 5751 5753 5755 5757 5760 5763 5765 5767 5769 5770 5771 5771 5772 5773 5773 5774 5774 5775 5776 5777 5777 5776 5776 5776 5775 5774 5773 5772 5770 5769 5768 5767 5766 5766 5765 5764 5764 5763 5763 5763
5738 5739 5741 5743 5745 5747 5749 5752 5755 5758 5759 5761 5763 5765 5765 5765 5765 5765 5766 5766 5767 5768 5769 5770 5770 5770 5770 5769 5768 5768 5767 5766 5765 5764 5763 5762 5761 5759 5758 5757 5757 5756 5756 5756
5730 5731 5734 5737 5739 5742 5745 5748 5751 5753 5755 5757 5758 5760 5759 5759 5758 5759 5759 5760 5761 5762 5763 5763 5764 5764 5764 5763 5762 5762 5761 5760 5759 5758 5757 5755 5754 5752 5751 5750 5749 5749 5748 5749
5725 5725 5728 5732 5736 5740 5744 5744 5746 5748 5750 5752 5753 5753 5754 5754 5754 5754 5754 5754 5755 5756 5757 5758 5758 5758 5758 5758 5757 5756 5755 5754 5753 5752 5750 5748 5747 5745 5744 5743 5742 5741 5741 5741
5722 5723 5726 5729 5733 5737 5739 5740 5742 5745 5747 5748 5749 5750 5750 5750 5750 5750 5750 5750 5751 5752 5753 5754 5754 5754 5754 5753 5752 5751 5750 5748 5747 5745 5743 5741 5740 5738 5737 5736 5734 5734 5734 5733
5721 5722 5725 5727 5730 5733 5736 5737 5739 5743 5744 5745 5746 5747 5747 5747 5748 5748 5748 5749 5749 5750 5751 5751 5751 5751 5750 5749 5747 5746 5744 5742 5740 5738 5736 5735 5733 5731 5730 5728 5727 5726 5726 5725
5721 5721 5723 5724 5727 5729 5732 5734 5738 5741 5742 5742 5743 5744 5745 5745 5747 5748 5748 5749 5749 5750 5750 5749 5749 5748 5746 5744 5743 5741 5739 5737 5735 5732 5730 5728 5726 5724 5722 5720 5719 5718 5717 5717
5719 5719 5720 5722 5725 5729 5729 5731 5735 5736 5738 5739 5741 5743 5744 5745 5746 5747 5748 5749 5749 5749 5748 5747 5746 5744 5742 5740 5738 5736 5734 5732 5729 5727 5724 5722 5720 5717 5715 5713 5711 5710 5709 5708
5717 5718 5718 5720 5723 5723 5725 5728 5731 5733 5735 5737 5740 5741 5743 5745 5746 5747 5748 5748 5748 5747 5746 5745 5743 5741 5739 5737 5734 5732 5729 5727 5724 5722 5719 5717 5714 5711 5709 5706 5704 5702 5700 5700
5716 5715 5716 5717 5719 5720 5723 5726 5728 5731 5733 5736 5739 5741 5743 5744 5745 5746 5747 5747 5746 5745 5744 5742 5740 5738 5736 5733 5731 5728 5725 5722 5720 5717 5715 5712 5710 5706 5703 5700 5697 5694 5692 5691
5715 5713 5714 5715 5717 5719 5721 5724 5726 5729 5731 5734 5737 5740 5742 5743 5744 5745 5745 5745 5745 5743 5742 5740 5738 5735 5733 5730 5727 5725 5722 5719 5717 5714 5711 5708 5705 5702 5698 5695 5691 5688 5685 5682
5714 5712 5712 5714 5715 5717 5720 5722 5725 5727 5730 5733 5736 5739 5741 5742 5743 5744 5744 5744 5743 5742 5740 5738 5736 5733 5730 5728 5725 5722 5719 5717 5714 5711 5708 5706 5702 5699 5695 5691 5688 5684 5680 5678